Change the Weather History Date:

Saturday, October 13, 2012

  Actual Average Record
Temperature  
Mean Temperature 56 °F 46 °F  
Max Temperature 70 °F 60 °F 85 °F (1964)
Min Temperature 42 °F 32 °F -16 °F (1881)
Degree Days  
Heating Degree Days 9 19  
Month to date heating degree days 246 219  
Since 1 July heating degree days 460 576  
Cooling Degree Days 0 0  
Month to date cooling degree days 0 0  
Year to date cooling degree days 507 386  
Growing Degree Days 4 (Base 50)    
Moisture  
Dew Point 35 °F    
Average Humidity 48    
Maximum Humidity 70    
Minimum Humidity 26    
Precipitation  
Precipitation 0.00 in 0.02 in 0.68 in (1975)
Month to date precipitation 0.82 0.29  
Year to date precipitation 11.15 10.08  
Snow  
Snow 0.00 in 0.10 in 1.10 in (1975)
Month to date snowfall T 0.6  
Since 1 July snowfall T 0.9  
Since 1 September snowfall T 0.9  
Snow Depth 0.00 in    
Sea Level Pressure  
Sea Level Pressure 29.85 in    
Wind  
Wind Speed 12 mph (WSW)    
Max Wind Speed 25 mph    
Max Gust Speed 40 mph    
Visibility 10 miles    
Events      
T = Trace of Precipitation, MM = Missing Value Source: NWS Daily Summary

Daily Weather History Graph

Daily Weather History Graph

Search for Another Location

Airport or City:

Trip Planner

Search our weather history database for the weather conditions in past years. The results will help you decide how hot, cold, wet, or windy it might be!

Date:

Astronomy

Oct. 13, 2012 Rise Set
Actual Time 7:36 AM MDT 6:32 PM MDT
Civil Twilight 7:05 AM MDT 7:04 PM MDT
Nautical Twilight 6:28 AM MDT 7:40 PM MDT
Astronomical Twilight 5:52 AM MDT 8:16 PM MDT
Moon 5:23 AM MDT (10/13) 5:22 PM MDT (10/13)
Length of Visible Light 11h 58m
Length of Day
10h 55m
Waning Crescent, 4% of the Moon is Illuminated
Oct 13
Waning Crescent
Oct 15
New
Oct 21
First Quarter
Oct 29
Full
Nov 6
Last Quarter

Hourly Weather History & Observations

Time (MDT) Temp. Windchill Dew Point Humidity Pressure Visibility Wind Dir Wind Speed Gust Speed Precip Events Conditions
12:53 AM 55.0 °F - 30.9 °F 40% 29.71 in 10.0 mi West 10.4 mph - N/A   Clear
1:53 AM 48.9 °F - 32.0 °F 52% 29.74 in 10.0 mi WSW 8.1 mph - N/A   Clear
2:53 AM 48.9 °F - 32.0 °F 52% 29.75 in 10.0 mi SSW 8.1 mph - N/A   Clear
3:53 AM 48.9 °F - 33.1 °F 54% 29.75 in 10.0 mi SSW 9.2 mph - N/A   Clear
4:53 AM 45.0 °F 39.7 °F 33.1 °F 63% 29.78 in 10.0 mi SW 10.4 mph - N/A   Clear
5:53 AM 46.9 °F - 34.0 °F 61% 29.79 in 10.0 mi WSW 5.8 mph - N/A   Clear
6:53 AM 44.1 °F 40.1 °F 34.0 °F 68% 29.81 in 10.0 mi SW 6.9 mph - N/A   Clear
7:53 AM 43.0 °F - 34.0 °F 71% 29.83 in 10.0 mi Calm Calm - N/A   Clear
8:53 AM 44.1 °F 40.8 °F 35.1 °F 71% 29.83 in 10.0 mi WSW 5.8 mph - N/A   Clear
9:53 AM 50.0 °F - 37.0 °F 61% 29.85 in 10.0 mi WSW 9.2 mph - N/A   Clear
10:53 AM 57.0 °F - 37.9 °F 49% 29.86 in 10.0 mi SW 13.8 mph - N/A   Clear
11:53 AM 60.1 °F - 37.0 °F 42% 29.85 in 10.0 mi SW 11.5 mph - N/A   Scattered Clouds
12:53 PM 64.9 °F - 37.0 °F 36% 29.83 in 10.0 mi West 19.6 mph - N/A   Overcast
1:53 PM 66.0 °F - 36.0 °F 33% 29.83 in 10.0 mi West 23.0 mph 28.8 mph N/A   Overcast
2:53 PM 66.9 °F - 35.1 °F 31% 29.83 in 10.0 mi West 18.4 mph 28.8 mph N/A   Mostly Cloudy
3:53 PM 70.0 °F - 34.0 °F 27% 29.83 in 10.0 mi WNW 16.1 mph 21.9 mph N/A   Mostly Cloudy
4:53 PM 68.0 °F - 33.1 °F 27% 29.85 in 10.0 mi WNW 15.0 mph 21.9 mph N/A   Overcast
6:53 PM 57.9 °F - 35.1 °F 42% 29.92 in 10.0 mi West 9.2 mph - N/A   Mostly Cloudy
7:53 PM 57.9 °F - 35.1 °F 42% 29.95 in 10.0 mi WSW 12.7 mph 21.9 mph N/A   Mostly Cloudy
8:53 PM 54.0 °F - 37.9 °F 55% 29.99 in 10.0 mi SW 11.5 mph - N/A   Scattered Clouds
10:53 PM 53.6 °F - 37.4 °F 54% 29.98 in 10.0 mi WSW 15.0 mph 24.2 mph N/A   Clear
11:53 PM 52.0 °F - 37.9 °F 59% 29.98 in 10.0 mi WSW 12.7 mph - N/A   Clear